Theta_e
320 322 324 326 327 327 327 328 329 330 330 329 329 326 324 323 326 328 328 328 328 326 328 329 328 326 325 326 327 328 328 328 329 330 330 330 330 326 325 329 335 337 341 345 346 346 347 346 344 342 346 344 342 342 341 340 339 339 339 339 339 338 336 335 335 334 334 333 332 331 330 330 330 330 330 328 328 329 328 327 327 327 327 326 326
319 321 322 323 325 326 326 326 328 330 330 329 328 328 325 324 326 328 327 327 327 326 327 327 327 326 325 325 327 327 328 327 328 329 330 329 328 326 322 327 332 336 337 340 344 345 345 345 343 344 344 344 342 341 341 340 339 339 338 339 338 337 336 335 334 334 333 332 331 331 330 330 329 329 328 328 328 328 327 326 326 326 326 325 325
317 319 321 322 324 325 326 326 326 328 330 330 328 327 326 325 326 327 327 326 326 325 326 327 327 326 324 325 326 326 327 327 328 329 329 328 326 327 325 323 328 332 332 335 339 342 341 341 343 346 344 343 342 341 340 340 338 339 339 339 338 337 335 334 333 333 332 331 331 330 329 329 329 328 327 328 327 326 326 325 326 326 325 324 324
311 314 316 319 321 322 324 324 325 327 329 329 327 327 326 326 326 326 326 325 324 323 325 326 326 326 325 324 325 326 327 326 327 328 328 327 326 326 326 326 322 326 329 334 338 339 339 341 340 342 343 342 343 342 340 338 337 337 338 338 337 336 335 333 333 332 331 330 330 329 328 328 327 327 327 326 326 325 324 325 325 324 325 325 324
305 309 315 319 319 320 322 323 323 325 327 326 325 326 325 325 324 324 324 323 322 322 323 325 325 324 325 325 325 325 325 325 326 327 327 326 326 326 325 325 325 321 324 328 335 336 339 340 340 340 342 343 341 339 340 339 338 337 337 337 337 336 334 333 332 331 330 330 329 328 328 327 327 327 326 325 325 324 324 324 324 324 324 324 324
302 309 316 316 316 318 319 321 323 323 324 326 324 324 325 324 323 323 320 322 323 321 321 322 323 323 323 324 324 323 323 324 324 324 325 325 324 325 324 325 325 326 327 322 326 330 336 339 339 340 339 338 338 339 339 338 337 337 336 335 334 334 334 332 331 331 330 329 328 328 327 327 327 326 324 324 324 324 324 324 324 325 324 323 324
303 310 311 313 315 316 317 319 321 323 323 325 323 323 324 324 323 323 322 322 323 321 321 321 321 321 322 322 322 322 322 321 321 321 322 323 324 324 323 324 324 324 325 327 318 324 329 334 337 336 336 335 337 337 338 337 336 335 335 335 334 334 332 332 331 331 330 329 328 327 327 327 327 325 323 323 323 324 324 324 324 323 323 323 323
303 305 309 313 312 313 315 317 318 320 322 323 323 322 323 323 323 324 322 321 321 320 320 320 320 320 321 320 321 321 322 321 321 321 321 322 322 323 323 322 323 324 320 324 325 322 324 328 332 334 334 335 336 335 338 338 337 335 335 334 334 333 332 332 332 331 329 328 327 326 326 325 325 324 324 323 323 324 324 324 323 323 323 323 323
301 304 310 307 308 310 312 314 315 317 319 321 322 321 321 321 322 323 324 321 321 320 320 320 320 320 320 319 320 320 321 321 321 321 320 322 321 321 322 322 320 316 324 323 325 325 321 324 329 329 328 331 334 335 335 337 336 336 335 334 333 332 331 330 330 330 328 327 327 326 325 324 323 324 323 323 323 323 323 323 323 323 324 323 323
301 305 305 304 306 307 309 310 312 315 316 319 320 322 322 322 321 322 323 323 321 320 319 320 320 319 319 318 318 318 318 318 317 315 320 320 321 322 322 322 321 322 323 323 324 324 324 321 321 322 320 326 332 333 334 333 335 335 335 334 333 332 330 329 329 328 328 326 325 326 325 324 323 323 323 323 323 323 323 323 323 323 323 323 323
301 303 302 302 303 304 306 308 311 313 314 314 318 319 320 322 321 320 322 323 322 321 320 320 319 319 318 317 316 315 315 315 314 316 319 320 321 320 322 321 322 322 322 323 323 323 324 323 323 323 323 323 331 332 333 333 332 332 333 334 333 332 330 328 328 327 326 325 325 324 323 323 324 323 324 323 323 323 323 323 323 323 323 323 323
300 301 301 301 301 302 304 307 309 311 311 310 311 316 318 319 320 320 320 320 321 321 321 319 318 318 315 316 316 314 314 314 316 316 316 319 320 320 321 321 321 321 321 322 322 322 323 324 320 323 323 322 324 327 330 330 330 332 332 333 333 332 330 328 328 327 326 325 325 324 323 323 323 324 324 324 323 323 324 323 324 324 324 324 323
299 300 300 300 301 302 304 305 308 308 309 309 310 309 313 318 319 318 318 318 318 320 320 320 316 313 314 313 311 312 312 314 316 316 317 318 318 320 321 320 321 321 321 321 322 322 321 321 322 323 322 323 322 320 324 324 324 330 332 332 333 332 330 329 327 326 325 324 324 323 324 324 324 324 324 324 323 323 323 324 324 325 324 324 324
298 299 299 300 300 301 302 303 305 307 307 307 307 306 308 310 316 316 318 317 316 318 318 317 313 310 308 306 306 309 310 314 314 313 315 315 318 320 320 320 320 321 321 321 321 321 321 321 321 322 322 322 322 322 322 321 323 328 329 330 332 332 330 329 328 327 325 324 323 324 323 324 324 324 325 324 323 324 324 325 325 325 324 325 325
298 298 299 300 300 300 301 303 305 306 306 305 305 305 306 307 311 316 315 317 316 318 318 318 312 313 312 308 304 304 304 307 307 311 313 314 315 318 317 319 319 320 320 321 320 320 320 320 321 321 320 320 320 321 321 316 319 317 324 327 329 330 330 328 328 327 325 324 324 324 324 324 325 325 324 324 324 325 325 326 325 325 326 326 326
297 298 299 299 300 300 301 302 304 305 305 304 303 303 303 305 307 314 317 314 314 315 318 319 317 313 304 307 306 307 301 303 306 302 304 311 313 313 312 317 318 318 319 320 320 320 319 319 320 320 320 319 319 319 319 319 313 310 313 318 321 328 329 329 328 328 326 325 325 325 324 324 325 325 324 325 325 325 326 326 326 327 326 327 327
295 296 298 299 299 300 301 301 302 304 305 304 303 303 303 304 306 306 313 315 313 314 316 319 317 317 311 307 303 304 304 306 305 300 303 307 308 311 309 314 317 317 318 319 319 319 319 319 319 319 318 318 318 317 317 317 315 314 314 310 316 321 324 328 327 328 328 327 326 325 325 325 324 325 325 325 326 327 327 327 327 327 327 327 327
295 297 298 298 299 299 299 300 301 302 304 304 304 303 302 303 304 304 305 315 316 314 314 316 318 316 316 314 312 306 305 306 306 298 298 299 306 307 310 313 315 315 318 318 317 318 317 318 318 318 318 318 317 317 317 317 313 317 318 317 314 317 320 324 328 328 329 327 327 326 326 326 325 325 326 326 327 327 327 328 328 328 328 328 328
293 295 297 298 298 298 298 299 300 302 303 304 304 303 303 303 304 304 304 306 314 313 313 314 316 316 315 314 309 310 311 308 305 302 298 300 302 305 307 310 313 314 315 316 316 317 317 317 317 317 317 317 317 317 317 316 312 312 309 308 313 316 319 320 322 325 326 328 328 327 327 326 326 326 326 327 328 327 328 328 328 328 328 329 328
292 294 297 298 298 298 298 298 300 302 303 304 304 305 304 305 305 304 304 303 306 314 314 315 312 312 314 312 307 310 311 312 311 305 304 299 297 298 301 307 310 313 314 314 315 316 316 316 316 316 317 316 317 317 316 315 315 316 312 310 314 316 319 320 320 320 323 326 328 329 328 328 328 327 328 328 328 329 329 329 329 329 329 329 328
290 292 295 297 297 297 297 298 299 301 302 303 304 304 304 303 303 303 302 302 302 310 315 314 314 313 312 309 306 308 310 310 309 307 304 301 301 302 302 302 308 309 311 314 315 315 315 316 315 315 314 315 316 316 315 315 316 316 311 310 314 316 318 319 319 319 320 322 326 327 328 330 330 329 329 329 329 329 329 329 329 329 329 329 329
289 292 294 296 297 297 296 296 298 299 298 300 301 302 302 302 302 302 303 302 303 303 312 316 315 315 313 311 306 304 307 306 305 304 304 306 302 302 303 303 304 304 305 311 313 314 315 314 313 314 315 315 315 315 315 315 316 316 312 309 313 315 317 319 320 320 319 320 321 323 327 328 329 330 330 329 329 329 329 328 329 329 329 329 330
289 291 293 295 296 296 296 296 297 297 297 299 299 300 301 301 302 302 301 301 300 301 305 314 315 314 313 311 308 307 306 305 304 304 303 299 300 303 303 306 307 302 300 305 310 312 313 313 313 314 314 314 315 315 315 316 310 312 308 310 313 315 317 319 319 319 319 320 321 321 324 325 327 328 329 330 329 329 329 329 329 329 329 328 329
287 289 290 294 295 296 296 296 296 296 296 298 299 299 300 300 301 300 300 301 301 300 304 313 313 313 313 312 310 310 309 308 307 306 304 304 304 303 303 305 301 296 296 298 303 309 311 312 313 313 314 314 314 314 315 316 314 306 308 308 312 313 317 319 318 318 319 319 319 320 323 323 324 324 326 328 329 329 329 329 329 329 328 327 326
282 283 288 291 292 294 295 295 295 295 296 297 298 298 299 299 300 300 300 300 301 301 301 311 313 312 312 313 312 310 309 310 309 307 307 306 305 303 303 305 302 296 293 298 293 298 304 311 311 312 312 312 313 314 315 316 314 306 306 306 311 313 315 318 318 318 318 317 317 319 322 323 322 324 327 328 328 329 328 328 328 328 328 326 325
279 281 284 286 288 291 293 295 295 296 296 296 297 298 299 299 300 300 300 301 300 300 300 304 313 313 314 312 311 310 310 310 309 308 306 305 304 304 301 297 300 297 294 295 295 300 298 300 303 307 305 310 312 313 314 315 313 304 306 310 311 312 314 317 317 317 316 316 317 317 316 318 322 323 324 327 327 328 328 327 328 328 327 326 325
279 281 283 284 286 288 291 294 295 295 295 296 297 298 299 299 299 299 299 299 300 300 300 301 309 312 312 313 311 311 310 310 310 309 308 307 306 305 302 297 293 294 295 294 297 305 301 294 298 300 300 306 309 310 311 312 309 304 304 314 313 308 311 314 317 317 314 314 315 315 314 315 317 320 320 320 323 324 326 327 327 327 327 325 324
279 281 283 284 286 287 288 291 295 295 295 295 295 295 296 297 297 298 298 300 300 300 300 301 304 312 312 313 311 310 310 309 309 309 309 308 308 307 305 302 298 292 292 293 297 300 301 299 296 298 299 301 304 304 305 309 311 303 304 313 311 310 309 310 313 315 315 313 313 313 312 312 314 315 316 316 317 317 318 321 322 322 321 321 321
278 280 282 285 286 286 286 288 292 294 294 293 293 294 294 295 296 297 297 299 299 300 301 301 302 311 312 311 310 310 310 309 309 309 308 308 308 308 307 304 303 298 293 293 296 300 299 304 301 298 298 299 301 300 306 308 305 305 311 309 309 310 308 309 311 313 314 313 312 312 312 312 313 314 314 314 315 316 318 319 319 320 320 320 321
277 279 282 284 284 284 285 286 289 291 292 292 292 293 293 294 295 296 297 298 299 300 300 300 301 308 310 310 309 309 309 309 309 308 308 307 307 308 308 307 305 301 299 296 295 300 300 300 303 298 292 295 296 298 295 302 300 306 309 308 306 306 305 306 309 310 311 311 312 311 312 312 312 312 312 313 314 315 317 317 317 318 319 320 322
277 278 280 280 281 283 284 285 287 290 292 292 291 292 292 292 293 294 296 297 297 298 299 299 300 303 310 309 308 309 308 309 309 308 307 307 307 308 307 307 305 304 302 301 296 296 302 300 299 295 296 291 294 294 296 293 300 306 306 306 305 302 301 303 305 308 308 309 310 310 311 311 311 311 311 311 313 315 316 316 316 317 318 319 321
276 277 278 278 280 282 283 284 285 287 290 291 290 291 291 292 292 293 294 296 296 297 298 299 300 300 307 309 308 307 307 308 308 307 307 306 307 307 307 306 305 305 304 303 300 297 300 303 299 294 296 294 293 294 292 292 295 298 303 303 303 298 302 304 303 305 307 308 309 309 310 310 311 311 311 311 314 314 314 314 315 316 317 317 319
276 276 276 278 279 280 281 282 282 284 287 290 290 290 290 290 291 292 294 295 295 296 297 298 298 299 302 308 308 307 307 307 307 307 306 306 307 307 307 306 305 305 304 302 299 296 295 296 296 295 294 295 293 293 293 293 293 293 298 298 300 299 300 302 303 301 304 307 308 309 310 310 311 311 311 311 312 313 313 314 314 313 314 317 318
275 275 276 277 278 278 279 280 281 282 284 288 290 290 290 290 290 292 293 293 294 295 297 297 298 299 300 307 306 306 307 307 306 306 306 306 306 306 306 306 304 304 305 302 298 296 293 291 292 294 294 298 295 292 295 293 293 292 294 295 297 297 299 299 301 302 303 305 308 309 309 310 310 311 310 311 311 312 312 313 312 311 313 314 314
274 274 275 276 277 277 278 279 280 281 283 286 290 290 290 290 290 290 291 292 293 293 295 296 297 299 300 304 306 306 306 306 306 306 306 305 306 305 305 305 304 304 303 302 299 295 293 292 292 292 293 295 296 292 293 295 294 294 294 294 295 294 295 297 299 299 303 306 308 309 309 309 310 310 310 310 310 310 311 311 311 310 311 311 312
273 274 274 275 275 276 277 278 280 281 283 285 288 290 290 290 290 290 290 291 292 292 294 296 297 298 300 303 305 306 305 305 304 305 306 306 305 305 304 304 304 302 301 300 301 298 295 291 290 293 293 295 291 292 293 293 294 294 295 293 293 293 292 293 295 297 302 306 307 307 308 309 309 310 309 309 309 309 309 309 309 309 309 309 309
272 272 273 274 274 274 276 277 278 279 281 283 285 287 289 290 290 290 290 290 291 292 293 295 296 298 299 303 305 304 304 304 302 304 305 303 305 305 305 304 304 302 301 300 299 298 295 293 291 291 292 292 291 293 294 294 292 291 291 293 294 293 292 291 293 297 300 304 304 305 306 308 308 309 309 309 309 309 308 308 309 308 307 307 306
271 271 271 272 273 273 274 275 277 278 279 281 283 285 287 289 289 289 289 290 290 291 292 294 296 298 299 302 305 304 303 304 302 304 305 304 304 305 304 304 303 301 300 298 298 297 296 294 292 290 291 292 291 292 294 296 294 292 291 290 290 291 293 294 293 293 296 301 301 303 303 305 305 307 308 308 308 308 308 308 307 306 304 304 305
270 270 270 270 271 272 272 274 275 276 277 279 281 283 286 288 289 289 289 289 290 291 292 293 296 298 300 302 304 304 304 304 303 304 304 304 304 304 304 304 302 300 298 297 296 295 294 292 292 292 291 292 293 291 292 294 295 295 292 291 291 290 293 295 294 293 294 296 298 301 301 302 303 305 305 306 307 307 306 306 306 305 302 303 304
269 269 269 269 270 271 271 272 274 275 276 277 279 282 286 287 288 288 288 289 289 290 291 292 295 297 299 302 304 305 305 305 304 304 305 304 305 303 304 304 302 300 297 295 295 294 292 292 292 291 292 291 290 292 292 292 292 291 293 294 293 291 292 293 293 295 293 294 294 295 298 300 301 303 304 304 305 305 304 303 303 302 300 302 303
269 269 269 269 269 270 271 272 273 275 276 277 279 280 282 285 287 288 288 288 288 288 289 290 292 295 299 301 304 305 303 300 300 301 302 303 304 300 302 303 300 298 296 295 295 294 293 292 291 292 291 291 291 291 291 292 293 293 292 292 292 292 293 293 292 292 294 295 293 293 293 295 295 296 298 300 302 302 301 300 300 298 299 302 303
268 268 268 269 269 269 270 271 273 274 275 277 279 282 284 285 287 288 288 288 288 288 289 289 290 292 295 300 302 299 297 297 297 298 300 300 300 303 303 301 298 297 296 295 295 294 293 292 291 291 290 291 291 291 292 293 293 292 291 292 291 290 290 289 289 288 289 294 294 294 293 293 295 291 292 297 295 298 298 299 299 299 300 302 303
267 268 268 268 268 269 270 271 272 274 276 277 280 282 284 286 287 287 288 288 288 288 288 288 289 290 293 297 303 299 296 296 297 297 299 299 299 299 299 299 299 298 296 295 295 294 293 292 291 291 291 291 291 292 292 292 292 293 293 293 291 290 291 290 289 289 289 292 294 293 292 290 294 294 293 294 294 294 295 296 299 298 300 302 302
266 267 267 268 269 270 271 272 273 274 275 279 281 282 284 285 286 286 287 288 287 287 287 288 288 290 291 295 300 302 300 301 301 300 299 297 298 298 298 298 298 298 298 297 295 294 293 292 291 291 292 291 291 292 292 292 292 292 293 292 290 291 290 291 291 291 292 292 294 293 292 289 290 294 292 293 293 293 293 296 299 299 301 302 301
266 266 267 267 267 268 269 270 272 274 275 279 281 282 283 284 286 287 287 288 287 287 287 287 288 289 290 292 297 303 302 296 297 301 301 299 296 297 297 296 297 298 298 298 297 296 295 294 292 291 292 292 290 291 293 293 294 291 291 290 290 291 291 291 292 292 291 291 293 292 291 288 289 291 293 291 290 289 292 297 299 300 301 301 301
265 266 266 266 267 267 268 269 270 273 275 278 281 282 283 284 285 286 287 288 288 287 287 287 287 288 289 291 295 301 301 298 300 301 300 298 297 296 296 297 297 297 297 297 296 295 295 294 293 292 293 293 292 293 293 293 292 291 291 290 290 290 290 291 292 293 292 293 294 292 291 288 287 290 290 288 287 287 289 295 298 299 300 300 300
265 265 266 266 267 268 269 271 273 274 276 280 281 282 283 284 285 286 286 287 287 287 287 287 287 288 289 292 295 300 301 299 300 300 299 298 295 294 294 294 295 297 298 298 298 298 296 296 294 294 294 294 294 294 294 293 293 293 293 291 291 291 290 287 287 287 289 292 293 293 290 289 287 289 290 288 286 287 287 294 298 299 300 300 299
266 266 267 267 267 268 269 270 271 273 276 281 282 282 283 284 285 284 285 286 286 286 286 287 287 288 289 291 293 299 301 299 298 298 298 298 294 293 293 293 294 297 298 297 297 297 298 297 296 296 295 295 295 294 293 293 293 291 291 289 289 288 288 288 286 286 288 290 291 293 291 289 288 289 289 286 286 286 285 288 296 298 299 299 299
265 266 266 267 268 269 269 270 272 274 276 279 281 282 284 285 285 283 285 286 286 286 286 287 288 288 289 291 294 299 301 300 297 298 298 296 294 293 293 292 293 294 295 297 296 296 296 296 296 296 296 296 296 296 296 295 292 291 290 289 288 289 287 284 281 285 287 289 287 289 288 288 287 288 283 283 286 286 285 286 289 297 298 299 299
265 266 267 267 268 269 269 271 273 274 276 279 281 282 283 285 285 283 284 285 285 285 286 287 287 288 290 290 292 298 301 300 297 298 298 295 294 293 293 292 292 292 293 294 295 295 295 295 295 295 295 295 295 295 295 295 294 292 291 289 288 289 288 287 284 285 286 287 288 286 285 285 287 284 279 279 282 280 284 285 287 291 296 297 298
266 267 268 268 268 269 270 271 273 274 277 280 283 283 284 285 285 284 284 284 284 285 285 286 287 288 290 291 292 294 300 299 298 298 298 296 295 293 293 293 292 292 293 293 292 292 291 291 292 293 291 292 293 293 292 294 293 292 292 291 289 289 288 287 285 284 283 284 287 286 286 281 285 283 283 279 280 279 281 285 285 287 290 291 294
Wind_Speed
11 11 9 10 9 9 9 9 9 9 9 10 9 8 7 7 8 9 8 9 8 8 8 9 8 9 10 11 11 11 10 9 9 7 6 7 7 10 15 14 14 15 16 21 23 27 30 33 31 31 33 33 34 32 32 32 30 30 31 30 30 30 27 25 25 27 27 27 25 23 22 23 23 22 23 22 22 22 22 21 21 20 20 20 18
12 11 12 12 11 10 10 10 9 9 9 10 11 10 10 8 9 9 9 10 9 10 9 9 10 10 10 11 10 11 10 10 8 8 7 7 7 9 15 15 15 16 14 15 23 26 28 29 31 34 33 32 32 33 30 29 30 30 30 29 30 29 26 25 25 25 26 25 24 24 24 24 23 23 23 23 23 23 22 21 21 21 20 20 20
14 13 12 13 12 11 10 9 9 10 11 11 11 12 11 11 11 10 10 10 10 9 10 9 10 10 10 10 9 8 9 8 8 9 8 7 6 8 10 14 14 16 15 14 17 26 29 28 31 31 32 31 31 33 33 29 29 28 29 30 30 29 27 26 24 24 26 24 24 24 24 24 23 23 24 24 22 21 22 22 21 21 21 21 19
15 15 13 12 12 12 11 10 10 9 11 11 12 12 12 11 11 11 11 11 9 8 9 10 10 10 11 12 9 8 8 7 8 9 9 8 7 7 7 8 12 15 17 14 14 23 27 29 32 32 31 33 31 31 32 33 32 31 29 29 30 30 27 26 26 26 25 25 25 25 24 24 24 23 23 23 22 23 21 21 22 22 21 21 20
14 16 15 12 12 13 13 11 10 9 9 12 13 13 10 10 9 9 9 8 9 9 8 9 10 9 9 10 9 8 8 8 8 9 10 8 8 7 7 7 7 12 15 15 14 19 24 34 35 35 33 31 32 33 31 28 29 30 31 31 29 29 28 28 28 27 26 27 26 26 25 25 24 24 24 23 23 23 23 23 22 22 23 22 20
13 14 12 12 12 12 13 13 11 12 13 12 12 9 10 11 11 10 10 10 10 10 10 9 8 8 9 9 9 7 7 10 9 7 7 8 6 6 7 7 6 5 8 14 14 11 11 23 31 29 33 34 33 33 32 29 29 30 30 31 29 28 29 28 28 29 29 29 27 27 26 25 26 24 22 23 23 23 23 23 23 23 23 23 21
14 13 13 12 11 12 13 12 12 11 11 11 10 12 14 15 12 12 10 10 10 10 11 11 11 11 10 9 8 7 6 4 6 6 7 8 7 5 6 6 6 5 5 5 11 15 13 11 23 30 27 29 31 32 32 29 28 29 29 29 30 30 29 27 29 28 28 28 27 26 26 25 25 26 26 24 23 23 23 24 23 25 24 23 22
13 13 12 10 11 12 12 12 14 13 13 12 10 12 13 14 13 15 13 11 11 11 9 11 11 12 10 9 9 9 9 9 6 5 6 7 6 7 6 6 6 6 7 6 6 9 15 14 16 22 26 27 29 30 32 32 31 30 30 29 29 29 29 29 29 28 28 27 26 26 26 26 25 25 25 24 23 23 23 24 25 25 24 23 23
11 13 10 9 10 12 12 13 13 13 13 15 12 10 11 12 12 14 15 14 13 12 12 11 11 11 10 10 10 10 9 9 10 7 4 7 7 5 7 6 6 7 7 7 7 8 12 15 16 16 20 22 22 29 31 33 32 31 30 30 29 29 29 28 28 28 27 28 27 27 27 26 25 25 26 27 25 26 25 25 26 25 23 24 23
12 11 9 9 9 10 12 14 14 12 13 13 15 12 12 13 14 13 13 14 13 14 13 12 11 10 10 11 11 10 9 8 8 7 7 6 7 7 7 7 7 6 7 8 8 7 8 11 15 15 16 21 23 24 28 29 32 32 32 30 30 29 29 29 29 29 27 27 26 26 26 26 27 28 28 28 27 27 26 26 26 25 24 24 23
12 11 9 8 9 10 11 14 13 12 12 12 13 15 11 14 16 15 15 15 15 16 15 13 13 12 11 13 11 10 8 6 6 8 7 7 7 8 8 7 8 7 7 8 8 7 9 6 7 8 9 18 23 26 27 28 29 31 31 30 30 30 29 29 28 27 27 26 26 26 26 28 27 28 28 28 28 27 27 26 26 25 24 24 23
12 10 9 8 7 9 11 12 12 12 12 11 12 12 15 17 17 18 17 12 13 14 14 14 13 15 13 11 10 10 8 7 8 8 5 7 8 8 8 7 8 8 8 8 9 9 8 10 8 9 10 11 14 21 23 23 24 29 30 30 31 30 30 28 27 26 26 26 26 25 27 28 28 28 29 27 28 28 26 25 25 24 24 23 23
11 10 9 8 8 8 9 11 12 12 12 11 12 14 14 14 15 17 19 16 13 13 15 15 13 10 11 9 7 5 7 9 9 8 8 6 5 8 8 9 9 10 9 8 9 9 7 6 9 10 10 8 10 16 22 21 22 27 29 30 30 31 31 29 28 25 25 26 26 27 28 28 28 28 28 28 28 27 27 26 25 24 24 23 23
12 10 9 8 8 8 8 10 12 12 12 11 13 13 12 14 18 10 12 17 12 14 12 12 10 13 13 7 4 6 6 8 9 7 8 7 7 8 9 10 11 12 10 11 10 9 11 8 8 10 10 8 9 8 10 13 16 23 26 29 30 30 30 29 27 27 25 27 28 28 28 28 29 28 27 28 28 28 26 25 24 24 23 23 22
12 11 10 9 8 8 8 9 11 12 11 11 11 13 14 14 18 16 11 12 13 13 16 18 13 13 13 11 9 9 2 5 2 7 8 8 8 8 9 10 12 12 12 12 12 10 8 10 10 10 10 10 8 9 9 10 12 21 23 24 27 30 29 29 27 28 28 27 27 28 29 29 27 28 29 28 28 26 26 24 24 24 22 21 20
13 12 11 11 8 7 8 8 11 12 13 10 10 12 13 15 16 18 19 17 13 14 19 21 15 16 12 13 12 13 11 8 9 2 2 7 9 8 7 10 12 9 9 11 13 14 11 9 11 11 11 10 9 9 9 7 14 18 20 22 23 27 29 29 29 28 27 29 29 28 29 29 28 28 28 27 27 26 25 24 23 22 21 19 18
14 14 12 11 8 7 7 8 10 12 12 11 9 10 11 12 15 17 20 18 17 15 16 20 19 20 16 10 6 9 12 13 12 1 3 7 7 8 5 8 12 12 11 10 9 13 14 13 11 11 11 10 10 9 9 10 11 9 14 19 21 23 26 29 30 28 28 29 29 28 29 28 28 28 28 27 26 25 24 23 21 20 20 19 19
14 13 13 12 10 8 6 7 9 10 12 12 9 9 10 12 12 14 19 21 19 17 16 17 19 21 17 18 20 17 16 12 15 7 2 1 6 5 8 10 11 13 11 11 12 12 12 13 13 12 11 10 10 9 10 11 10 9 10 13 18 20 21 25 28 29 28 29 29 29 28 28 28 28 27 26 25 24 23 22 21 20 20 19 18
17 13 13 12 10 8 7 7 8 9 11 13 12 10 9 10 11 11 14 16 18 18 21 18 15 18 15 13 3 3 16 19 15 9 9 2 3 6 8 9 12 12 13 13 13 13 13 13 13 13 13 12 11 11 11 11 14 14 16 16 18 20 20 22 25 26 28 30 30 31 30 29 28 27 26 25 24 23 22 21 21 20 19 18 18
18 14 12 13 11 9 7 7 7 8 10 11 11 8 7 8 9 11 11 13 19 19 20 20 19 17 18 14 7 11 19 20 21 21 18 14 5 1 1 8 10 11 12 13 14 14 15 14 14 13 12 12 11 12 12 12 11 13 14 21 18 20 20 20 22 23 24 28 30 31 30 29 27 26 25 24 23 22 22 21 20 18 18 18 18
18 14 12 12 12 10 8 7 7 8 8 8 8 7 7 8 10 11 12 15 15 19 17 18 20 18 17 12 8 11 15 14 14 14 14 15 14 15 11 5 8 9 10 12 13 12 13 14 14 14 13 12 11 11 12 12 12 11 13 22 20 20 19 20 22 22 22 23 26 27 29 27 27 26 25 24 23 22 21 21 20 20 19 19 19
16 12 12 12 12 10 8 8 7 7 8 8 8 7 7 7 9 11 12 16 15 18 18 16 18 18 21 17 12 10 14 10 10 13 9 19 18 14 13 16 15 9 8 11 13 13 13 12 14 14 13 12 11 11 11 12 12 12 16 23 21 20 19 20 21 21 22 22 23 24 25 25 25 25 24 24 23 22 21 22 22 22 21 21 21
14 14 12 13 13 12 10 9 8 7 8 8 8 8 8 8 8 9 11 14 15 20 22 19 17 18 20 17 16 18 19 18 17 17 15 9 9 17 14 14 16 12 7 8 11 11 12 11 12 13 13 12 11 10 10 10 12 15 24 24 22 20 19 20 19 20 21 22 22 22 22 21 23 23 24 23 22 22 22 23 22 22 22 22 23
14 13 13 13 13 12 11 9 8 7 8 7 7 7 7 7 6 7 8 11 13 16 21 22 20 17 21 17 17 16 17 18 16 16 14 14 15 13 13 9 6 4 3 1 5 10 11 13 12 12 12 12 11 11 10 11 12 20 21 25 24 21 20 20 21 20 20 21 21 21 21 21 20 19 20 22 22 22 21 22 24 23 23 22 20
13 17 16 17 16 15 12 9 8 7 7 7 7 7 8 8 7 7 9 11 10 14 16 21 24 19 20 19 17 15 15 14 17 17 15 15 15 16 11 14 16 8 3 3 3 1 5 11 10 11 12 12 12 12 11 12 12 18 20 20 26 21 20 21 21 21 20 19 19 19 19 17 16 17 19 20 23 23 23 22 23 23 23 21 21
16 17 16 18 17 17 18 14 12 8 7 7 7 7 7 8 8 7 8 9 10 14 16 20 18 21 19 18 16 14 13 13 15 15 16 16 16 19 15 4 5 9 5 3 4 7 1 3 6 7 8 11 11 11 11 13 13 20 21 16 20 21 20 20 20 20 18 17 18 17 16 17 19 18 17 19 21 22 22 22 22 23 22 21 21
15 16 17 17 17 17 18 17 12 9 6 6 7 7 7 8 7 7 6 7 10 11 13 17 18 18 19 20 18 15 14 13 15 16 16 18 19 18 17 15 7 5 5 2 7 13 10 2 3 5 7 10 10 10 11 10 15 21 20 15 13 22 20 20 20 20 17 16 16 16 16 17 17 15 16 17 17 19 22 21 21 22 22 21 21
16 17 16 15 15 17 18 19 16 11 7 6 6 6 7 7 7 7 7 5 8 11 11 14 20 20 19 18 16 15 14 14 15 16 16 15 16 17 19 21 19 10 3 4 7 6 9 9 1 3 6 8 9 9 12 16 14 21 21 12 11 14 20 17 16 19 19 16 15 15 17 18 16 15 15 14 15 16 17 17 18 17 17 18 17
16 16 17 15 14 13 16 18 18 13 8 6 6 7 6 6 6 7 8 5 6 9 8 11 16 17 17 19 15 15 15 14 14 15 15 14 15 18 19 21 22 21 12 10 11 11 8 11 13 6 5 6 10 7 12 11 15 18 13 12 12 11 18 19 17 17 17 17 15 14 15 15 16 16 16 15 13 12 16 17 16 16 16 16 16
15 16 16 15 15 15 14 16 17 15 10 7 6 7 6 5 6 7 7 7 8 8 8 9 14 16 13 13 13 13 12 14 14 16 16 16 16 17 18 18 19 21 18 17 11 8 12 5 6 9 4 7 6 7 4 7 16 19 13 13 11 11 19 21 19 18 18 16 15 14 14 14 15 16 16 16 14 12 12 16 15 16 16 17 17
16 16 16 16 16 15 14 14 15 17 12 8 6 7 6 5 5 6 6 7 8 9 8 8 11 14 14 14 11 13 13 14 16 15 15 16 16 16 15 15 16 20 20 18 14 4 8 15 7 4 12 5 6 6 7 6 14 17 13 12 12 16 19 18 19 17 16 16 14 12 12 13 14 15 16 15 13 12 12 14 15 16 16 17 18
15 15 16 17 17 16 14 14 15 17 15 10 7 7 6 5 4 5 6 7 8 10 9 8 8 12 15 15 15 13 13 13 13 15 16 16 17 16 16 16 16 15 17 16 19 16 10 13 12 6 11 12 7 10 7 3 2 13 13 12 13 17 13 10 15 16 14 13 12 12 13 13 14 15 16 15 13 13 15 15 15 16 16 17 19
16 16 16 17 17 16 16 15 15 16 16 13 8 7 6 5 4 4 6 7 9 9 8 10 8 10 15 15 18 17 16 14 14 14 16 17 17 16 15 15 15 13 14 15 15 12 5 4 8 10 7 12 8 8 10 8 5 2 8 11 12 11 10 10 10 14 15 14 13 13 13 13 14 15 16 16 15 16 16 17 17 17 18 19 19
17 17 18 15 15 15 16 15 15 14 15 16 11 8 7 5 4 4 4 7 9 10 9 10 10 9 12 16 17 16 16 18 15 16 16 17 16 16 16 16 14 14 15 15 14 16 11 5 6 5 8 9 11 6 13 13 9 5 7 7 8 10 10 8 8 8 14 13 13 13 14 14 14 15 16 17 17 17 18 19 19 19 19 20 20
17 16 16 17 16 16 15 14 14 14 14 14 13 10 8 6 5 4 5 6 8 10 10 11 11 10 12 15 18 19 16 17 18 17 17 17 17 17 17 15 16 15 13 15 16 15 17 10 10 12 11 10 11 10 8 10 10 8 8 9 9 6 6 9 8 7 13 14 14 13 14 15 16 17 18 19 19 19 20 20 21 20 20 20 20
18 17 16 17 18 17 16 13 13 12 14 13 14 11 10 8 6 6 6 7 8 9 11 11 11 11 12 14 14 19 19 19 15 16 16 17 17 17 18 15 15 16 14 14 17 17 14 15 9 12 11 14 4 7 7 7 10 9 7 7 6 8 7 7 8 8 11 15 15 15 15 16 17 18 19 20 20 20 21 21 21 21 21 20 20
18 18 17 16 17 18 16 16 15 15 14 14 14 14 11 8 8 7 8 8 8 9 10 11 11 11 13 14 13 14 20 18 17 15 16 18 17 17 17 15 15 15 13 15 14 16 16 17 13 6 8 5 5 10 12 12 6 5 4 7 8 8 6 5 4 7 10 14 14 15 15 17 19 20 21 21 21 21 22 22 22 21 21 21 21
19 19 19 16 15 18 18 18 16 16 15 14 14 14 13 11 10 8 8 8 9 10 11 12 12 11 13 14 13 16 16 20 18 18 19 21 18 18 19 16 15 14 15 14 15 16 18 17 17 11 8 11 9 8 11 13 13 8 6 5 5 5 7 7 5 4 4 7 7 9 12 14 18 21 22 22 22 22 22 22 22 22 21 22 21
20 19 19 18 16 17 19 19 18 17 17 16 16 15 12 11 11 10 9 9 10 10 11 12 12 12 13 13 13 17 20 17 19 19 19 20 18 20 19 19 17 16 15 14 15 16 15 15 14 17 13 8 14 13 7 9 12 14 13 8 6 3 5 9 7 3 4 5 5 9 10 11 14 14 19 22 22 22 22 22 22 23 22 22 22
20 20 20 20 19 17 18 19 19 17 17 16 16 15 12 11 11 11 10 10 10 10 11 11 12 12 13 14 13 17 20 22 19 19 20 19 17 18 16 17 17 18 16 14 14 15 15 15 14 15 15 12 5 7 8 9 8 3 8 13 14 9 8 5 6 10 5 7 7 6 6 9 11 14 18 19 21 22 22 21 23 23 24 23 23
17 19 19 19 20 20 19 19 19 17 16 15 13 13 13 13 12 12 11 10 10 10 11 12 12 12 12 13 13 16 20 22 26 23 22 21 18 17 16 17 18 18 16 15 15 14 14 15 13 11 13 14 13 13 14 15 17 17 9 5 9 8 8 9 5 3 8 10 6 7 6 8 8 7 8 9 12 18 18 20 18 23 24 23 23
16 17 19 20 20 21 20 19 18 15 15 13 17 26 22 15 12 11 10 9 9 9 10 11 12 12 13 14 13 21 23 26 26 26 26 25 24 22 19 18 19 18 18 17 16 16 16 16 16 16 16 16 17 19 18 14 10 9 10 11 13 11 9 4 3 0 2 8 10 9 7 6 9 6 5 9 7 11 10 11 12 14 20 23 22
16 18 18 20 19 18 19 18 18 16 14 13 22 24 25 26 18 13 12 10 9 8 9 10 11 13 13 14 13 18 21 23 24 28 26 27 26 26 28 27 24 23 20 19 18 17 17 16 15 16 17 17 15 15 16 15 14 17 15 12 12 12 13 13 10 1 2 6 10 10 7 4 8 11 8 8 9 8 9 11 18 21 22 22 23
17 17 19 19 19 18 17 17 16 14 14 18 24 23 24 25 23 16 13 11 10 9 9 10 10 11 12 13 13 12 16 19 19 23 26 27 26 26 27 28 28 29 29 24 21 18 18 17 17 18 17 18 17 15 15 16 15 14 13 14 15 16 14 13 12 13 10 10 11 11 11 5 4 9 9 8 8 9 9 11 20 21 23 23 23
17 18 18 19 19 19 18 19 18 15 15 21 24 25 24 25 26 22 14 13 11 10 10 10 11 11 11 12 14 12 15 24 20 18 18 21 25 28 27 27 27 28 27 28 27 23 20 20 19 17 17 17 18 16 18 19 18 17 13 12 12 14 16 16 13 10 10 12 10 9 10 6 5 9 11 8 6 5 7 9 19 21 22 22 22
16 17 17 18 18 18 18 18 18 17 16 20 25 26 25 25 26 23 14 14 12 11 11 11 11 12 12 11 13 13 15 17 17 18 17 17 16 17 19 18 17 23 26 28 28 26 21 18 19 20 16 17 19 17 15 16 18 18 18 16 14 12 13 16 14 13 12 14 16 12 8 9 7 7 9 5 5 4 5 9 18 20 21 21 21
15 15 15 16 16 17 18 17 16 16 15 23 25 26 25 25 26 23 15 13 11 11 11 11 12 13 13 13 15 13 15 17 17 19 18 17 17 16 17 17 17 18 18 20 20 20 19 17 18 19 17 17 17 18 17 16 20 18 19 19 19 17 10 6 7 4 8 11 12 15 15 9 4 7 7 6 6 6 6 9 14 18 21 21 22
14 14 15 13 16 17 18 18 18 18 16 24 25 26 26 25 26 17 13 13 12 11 12 12 12 12 12 13 14 14 16 17 21 26 21 18 17 20 20 18 16 16 17 19 24 22 20 18 17 18 19 20 20 22 21 19 14 11 10 9 9 10 12 11 9 7 10 9 8 11 8 11 11 12 8 5 5 7 6 6 15 18 20 22 21
14 14 14 14 13 14 17 17 17 17 16 22 26 27 26 27 20 13 12 11 11 12 13 12 12 13 13 14 14 14 16 18 23 26 25 23 17 20 19 18 16 16 14 13 19 23 23 23 24 26 27 29 28 27 27 27 19 17 14 15 15 13 12 10 6 8 10 10 7 6 7 12 10 9 7 5 8 8 8 7 7 16 20 17 16
14 15 14 13 13 14 16 17 17 17 18 20 26 27 27 27 21 13 11 11 12 12 12 12 11 12 15 21 18 15 15 19 28 29 28 23 19 20 19 19 18 17 14 13 12 14 21 22 24 24 23 24 24 25 25 25 25 22 20 20 17 15 15 14 14 12 9 11 11 7 8 8 10 6 7 4 2 1 5 6 7 9 16 17 19
14 14 13 13 13 13 14 16 22 23 18 18 23 24 26 26 20 12 12 11 13 13 12 12 12 12 14 15 20 19 16 21 32 32 32 27 20 21 21 20 20 20 18 17 17 15 11 10 10 14 16 20 19 19 21 30 30 26 21 20 17 18 17 14 12 10 8 9 9 10 10 7 13 8 11 7 6 4 4 7 8 8 9 10 12
Wind_Direction
304 302 295 285 281 269 260 256 234 214 200 205 206 205 206 191 193 194 192 196 199 201 198 191 187 191 187 186 187 190 190 185 188 183 183 177 184 189 182 188 186 190 186 189 187 182 185 182 181 177 168 165 161 160 159 158 156 153 152 152 151 149 148 143 140 142 141 140 142 144 145 147 146 144 143 143 141 137 137 139 138 136 133 130 126
313 307 302 294 284 275 263 255 250 238 209 206 199 200 197 192 190 190 189 191 195 198 195 194 191 191 192 186 186 189 191 187 183 185 180 170 172 185 179 177 182 186 178 188 189 186 195 187 182 173 167 165 162 160 158 156 154 153 152 151 151 148 148 145 143 145 143 145 147 146 147 147 148 145 144 143 142 142 140 141 138 136 134 132 129
320 318 312 305 296 287 277 267 253 238 223 210 199 197 192 187 185 186 188 187 194 193 192 194 195 193 191 188 187 183 186 188 177 178 175 174 164 172 169 172 174 168 172 182 200 192 192 187 175 169 165 164 164 159 157 157 155 155 152 150 151 153 149 148 147 145 147 149 145 145 147 146 146 146 147 144 140 141 142 143 140 136 134 130 130
318 316 312 307 304 295 281 268 259 250 237 218 201 199 190 188 187 186 185 183 185 190 195 189 196 198 189 189 181 183 178 173 174 176 174 167 157 173 165 156 159 168 171 167 188 201 187 184 175 172 165 164 163 157 158 159 161 159 154 153 154 152 151 148 142 145 148 144 143 146 145 147 150 148 146 144 140 140 141 144 142 137 132 134 129
315 311 309 310 310 308 299 279 266 258 251 248 226 197 191 185 188 183 181 178 177 187 190 192 193 193 191 191 182 181 173 167 173 175 169 165 160 163 155 152 147 158 163 165 174 207 212 179 173 167 164 161 160 158 157 161 159 157 155 153 152 153 151 147 145 147 147 147 148 147 147 151 149 146 147 147 147 147 146 144 141 137 136 134 133
312 309 311 314 311 307 302 297 279 260 249 245 236 223 199 189 184 181 183 178 181 182 183 191 190 184 190 185 184 171 170 167 172 170 165 152 160 160 149 143 143 143 165 171 173 174 174 186 154 160 160 160 159 159 160 159 160 160 158 156 156 157 153 147 148 150 151 152 151 149 151 148 146 143 148 149 148 146 144 140 139 139 137 136 131
309 310 311 310 312 310 308 305 298 276 260 251 248 221 199 191 181 182 183 186 184 184 186 189 183 189 187 179 175 160 162 173 152 161 161 145 151 154 144 140 138 131 135 137 166 158 154 191 156 153 157 157 160 158 154 157 160 158 159 159 157 155 155 152 152 153 154 152 150 151 153 150 150 151 154 153 148 146 143 139 142 141 139 137 134
305 308 303 313 317 314 311 310 307 296 270 262 247 234 218 190 187 180 177 188 182 186 191 190 189 190 187 182 176 173 167 161 169 158 146 139 143 154 144 137 137 134 128 130 135 142 151 175 170 157 158 161 158 158 157 159 161 160 160 161 160 157 156 155 155 155 154 152 152 154 156 155 153 152 151 150 149 145 142 142 143 141 139 137 135
297 301 303 313 315 314 313 310 309 305 286 267 254 239 234 200 199 194 185 179 184 184 188 190 187 189 185 180 176 177 175 170 159 154 148 137 137 140 135 136 134 135 129 130 139 140 151 163 165 166 157 157 164 161 161 160 158 158 160 161 162 159 156 158 157 156 153 154 155 157 155 153 152 151 151 151 148 146 145 144 143 141 140 138 136
292 292 294 304 307 309 310 309 308 305 299 280 263 247 232 210 195 193 189 182 185 187 189 187 185 181 181 180 176 176 172 163 153 143 150 152 146 144 142 139 138 138 134 138 137 138 139 151 147 149 161 158 160 166 163 160 157 160 159 159 160 159 158 158 156 155 156 157 157 154 152 153 154 154 153 151 149 147 146 145 143 142 140 138 138
285 285 287 295 302 306 306 306 303 300 300 302 284 260 249 230 200 193 193 190 185 187 186 182 183 180 178 180 175 177 171 154 154 166 166 150 157 148 136 150 140 146 145 142 137 146 143 142 146 142 146 155 164 167 162 163 160 159 157 160 160 159 158 158 157 157 158 159 157 157 154 155 157 155 152 152 150 148 147 145 144 142 141 140 138
282 278 282 288 296 300 302 301 299 294 292 295 295 282 257 239 224 196 190 196 190 187 182 180 179 180 179 177 177 173 170 161 157 175 156 165 161 149 153 154 147 149 149 147 147 154 153 153 154 144 145 164 175 167 164 158 157 159 160 160 159 159 159 159 160 157 156 159 158 156 156 158 157 155 154 152 151 150 149 147 146 145 144 143 141
279 273 275 282 286 290 295 298 294 290 284 285 292 295 299 279 241 205 186 184 193 189 186 176 171 164 162 161 137 148 150 158 157 163 167 158 163 154 153 154 158 151 155 148 152 148 143 163 153 150 141 147 160 164 159 163 160 161 162 162 161 160 161 158 158 156 157 161 159 158 159 159 157 156 155 154 152 151 150 148 148 147 145 145 144
280 272 267 270 282 287 290 293 294 286 278 280 285 288 289 291 274 254 195 181 190 183 175 160 173 164 157 146 109 118 138 152 157 158 157 158 163 164 160 165 165 157 155 149 151 160 157 158 160 149 135 148 152 155 156 155 160 162 165 163 160 158 157 157 158 162 161 163 162 161 161 160 158 157 156 154 153 151 150 150 150 149 147 146 146
277 272 268 269 270 280 283 288 290 287 277 280 287 289 297 297 282 238 213 209 190 180 173 175 175 175 158 142 158 140 140 134 125 161 161 159 158 169 170 172 172 161 158 156 155 153 161 155 156 146 139 148 154 154 151 154 163 166 163 161 161 157 159 161 163 165 164 164 165 164 162 161 160 158 156 155 153 152 152 152 152 151 150 148 147
275 270 266 266 262 264 276 285 288 288 279 271 281 287 289 294 296 266 223 190 193 191 182 183 172 157 164 180 175 165 157 182 162 161 139 156 160 168 173 177 166 160 154 165 162 155 156 158 155 150 146 146 151 151 150 154 164 166 165 161 160 159 162 164 167 167 168 167 167 166 163 161 160 159 158 157 155 154 153 153 151 150 150 148 149
275 271 267 265 259 254 263 279 287 289 282 268 259 265 274 281 290 295 270 216 191 185 190 184 179 179 164 155 139 175 194 169 144 80 125 148 167 167 163 170 165 163 165 166 166 157 155 155 159 150 147 146 151 152 149 151 157 158 155 153 156 162 164 166 168 168 169 169 168 166 164 163 162 160 159 158 157 155 155 154 153 153 153 153 153
279 271 268 268 263 250 254 270 283 287 283 274 255 264 268 271 276 286 291 264 204 186 183 189 184 187 189 175 175 179 177 150 149 173 96 15 158 157 166 173 166 163 166 162 165 161 158 154 156 156 151 153 155 154 152 155 153 153 152 155 159 160 161 168 171 168 170 171 168 167 166 164 162 161 160 159 159 159 157 156 158 159 159 159 159
286 275 269 266 264 252 247 258 271 280 279 276 270 260 272 273 272 275 283 294 262 198 182 183 185 191 192 198 168 67 146 150 172 133 157 175 159 161 183 181 165 166 166 167 166 163 161 157 157 158 159 160 163 160 156 158 159 160 156 158 164 162 168 173 172 170 172 171 170 168 166 164 162 161 161 163 161 160 159 160 160 160 161 162 163
284 276 268 266 264 255 245 254 266 272 274 273 269 269 269 276 284 282 292 290 288 241 192 179 182 186 189 184 155 152 161 173 171 166 167 161 169 359 246 181 162 170 167 165 166 168 161 159 157 159 160 165 169 165 160 159 164 165 163 159 161 162 170 173 170 173 173 171 170 168 165 164 163 164 164 163 162 163 163 162 162 161 161 161 163
284 280 271 265 261 251 245 249 258 266 272 270 271 270 272 287 293 297 294 290 283 271 215 189 184 182 178 180 148 155 169 172 172 174 159 163 177 169 175 176 164 170 171 170 168 167 165 159 156 158 162 165 169 169 162 158 162 165 163 158 158 165 171 171 171 174 170 170 170 168 165 166 165 164 164 164 163 163 163 164 163 161 158 157 156
285 283 277 269 261 249 242 246 248 256 261 263 265 274 280 279 282 283 287 288 289 286 264 201 192 184 182 173 161 149 159 162 170 170 184 174 165 183 170 166 172 181 168 172 169 167 164 160 156 158 162 165 167 167 164 163 162 162 163 159 159 167 171 172 173 172 170 171 171 169 167 166 165 165 164 164 165 164 163 165 164 160 158 154 149
301 302 291 279 266 251 236 234 238 245 250 259 264 273 273 267 266 273 280 286 292 286 277 235 196 188 184 179 173 167 168 175 177 179 166 176 169 166 166 179 173 157 195 174 166 166 161 159 161 159 160 160 164 163 164 166 166 164 161 160 161 167 171 172 172 172 172 173 171 168 167 166 166 166 166 166 166 168 167 165 161 160 160 154 150
312 310 306 304 292 272 247 233 233 234 247 252 258 261 264 261 259 262 271 278 284 286 286 240 205 189 184 184 184 177 174 174 170 169 168 171 163 168 166 150 93 69 50 87 141 162 164 165 165 160 160 157 161 161 162 164 170 166 162 163 163 166 171 171 172 172 174 175 172 169 168 169 169 167 166 166 167 167 168 162 158 159 160 157 153
308 308 312 319 317 303 281 262 242 228 236 244 248 252 261 264 259 256 264 270 277 283 291 251 201 191 187 189 184 181 177 174 168 170 173 164 160 157 171 164 161 145 133 170 134 90 163 166 161 163 158 159 160 161 164 168 168 167 164 166 161 165 171 173 172 174 177 176 173 171 168 166 162 167 167 167 163 165 165 161 159 160 159 159 159
301 297 299 306 305 304 296 273 251 236 234 245 249 250 255 259 258 248 255 266 271 280 283 285 231 196 183 186 186 182 176 170 169 169 164 159 164 164 154 136 123 141 128 150 155 135 314 131 150 158 155 157 160 161 166 167 163 165 162 162 160 159 163 165 168 171 170 170 170 166 163 165 172 178 172 169 166 166 165 162 163 163 162 160 163
298 296 296 298 298 303 303 285 261 245 235 236 246 250 252 256 256 255 239 240 264 270 284 288 266 211 188 186 184 181 177 172 170 171 169 170 166 161 149 137 123 112 148 146 156 177 153 61 125 153 169 157 160 165 162 168 163 165 158 158 158 156 158 163 167 165 162 163 164 164 167 172 173 167 160 160 166 167 166 166 167 166 165 162 163
297 293 291 293 299 305 309 300 272 254 235 231 241 248 251 257 263 264 260 234 257 274 283 287 284 229 195 190 182 180 177 172 171 173 174 168 163 160 160 155 151 153 142 149 162 165 152 147 41 173 173 166 169 160 174 167 164 166 159 156 156 158 159 160 169 167 163 158 160 163 166 167 162 157 155 160 166 170 166 169 170 169 166 159 160
299 301 297 294 297 303 305 305 289 260 239 225 232 243 246 257 269 278 282 275 263 274 280 286 292 249 198 187 183 180 177 173 172 172 168 165 166 167 168 164 164 156 160 168 188 157 191 175 160 202 181 186 166 173 178 166 166 163 160 155 154 160 164 165 173 167 166 164 165 167 162 162 161 160 162 167 173 174 170 167 169 164 159 154 154
298 295 293 300 302 303 302 302 300 283 259 237 228 239 245 251 265 276 285 292 288 282 279 288 293 274 211 186 176 180 181 174 175 170 168 167 169 171 173 171 165 162 164 167 181 183 162 196 180 158 185 194 162 166 136 175 165 161 157 157 154 159 168 167 178 168 164 171 173 168 163 164 167 165 165 168 172 168 168 163 160 156 154 153 151
294 295 301 304 303 301 300 301 305 299 273 254 228 239 237 249 260 275 284 289 289 285 283 285 288 283 231 190 181 180 179 182 174 171 168 167 170 173 171 166 175 168 165 163 156 216 177 171 195 190 162 161 152 147 163 174 175 163 157 159 160 163 167 168 172 164 165 169 167 165 166 170 173 173 168 168 167 163 158 152 154 153 153 151 146
292 295 301 300 299 299 300 304 306 307 294 266 247 235 235 238 253 278 285 286 286 284 286 279 282 286 263 201 184 185 180 180 178 170 170 169 170 170 168 171 175 173 163 159 163 170 191 177 157 155 162 147 153 145 149 98 252 170 158 163 165 163 164 164 163 160 165 168 164 167 169 174 176 177 172 166 162 157 153 147 147 147 147 145 145
298 298 297 296 297 299 301 302 304 303 304 288 268 252 236 231 243 265 284 285 284 285 279 279 272 276 275 226 188 188 179 177 176 174 171 170 168 170 169 169 169 166 162 159 158 141 115 99 140 151 155 142 139 153 140 144 165 226 173 160 158 159 160 158 162 164 167 170 172 171 172 174 177 177 170 161 158 157 153 147 144 142 143 143 145
297 295 295 295 296 298 298 296 295 295 297 297 278 262 254 238 242 256 278 283 288 286 283 276 275 268 272 240 195 186 185 176 174 174 174 169 170 169 171 166 167 169 169 154 152 150 148 115 106 105 141 165 142 168 154 152 167 158 158 151 154 153 155 151 151 164 165 171 172 174 174 175 175 174 166 158 156 156 152 146 142 142 142 142 142
294 295 295 296 298 298 293 291 290 287 288 291 287 270 261 252 250 257 265 274 281 286 284 279 276 277 271 249 206 178 181 184 174 174 171 171 170 169 170 171 165 167 162 153 147 153 151 155 151 154 161 164 160 170 165 155 154 153 151 153 153 148 146 152 153 158 166 167 171 173 174 174 173 171 164 158 156 155 151 146 144 143 142 142 143
292 293 294 295 295 294 294 290 285 286 288 289 292 283 268 259 256 262 266 269 273 278 280 279 279 277 273 256 219 181 177 179 176 170 173 171 171 170 168 168 165 160 156 156 157 152 155 142 171 166 169 155 133 132 131 122 142 157 165 137 129 140 143 147 149 151 165 165 169 173 174 174 172 169 163 158 157 155 151 148 146 145 144 144 145
291 293 293 292 290 291 290 292 295 293 291 289 288 289 284 277 269 267 267 270 272 276 277 277 274 271 269 256 216 191 175 179 172 170 172 173 172 170 168 166 164 158 154 155 152 147 151 156 152 157 153 121 118 142 147 137 126 108 122 144 146 139 125 114 119 140 153 160 166 171 174 173 171 167 162 159 158 156 153 150 148 147 147 147 148
291 290 289 289 289 290 290 289 289 290 290 285 281 280 279 278 273 266 266 268 272 276 278 276 272 265 266 260 223 186 185 177 177 175 173 173 173 171 168 164 159 154 153 152 149 155 154 155 149 144 166 146 138 155 164 148 142 130 112 89 90 109 124 107 102 125 142 151 157 166 172 172 170 167 163 159 158 157 155 152 150 149 149 150 151
288 287 286 286 286 286 285 284 283 286 287 285 282 277 273 268 268 267 266 270 271 276 277 278 275 271 263 260 232 196 181 185 178 177 174 174 173 172 168 163 158 156 155 153 152 151 149 149 155 153 157 169 153 153 168 155 151 153 147 134 120 117 121 137 132 112 121 121 144 159 165 168 169 165 162 159 160 159 157 155 153 152 152 153 154
286 285 286 285 284 282 281 281 278 276 275 276 274 275 271 271 266 266 264 264 271 275 282 283 281 273 268 262 239 206 189 180 182 179 173 174 174 170 168 159 158 156 155 153 150 149 149 152 158 159 157 155 148 132 132 133 127 127 170 157 155 153 147 146 156 151 162 145 141 131 140 150 160 162 163 161 161 160 158 156 156 155 156 156 157
283 284 283 283 283 281 278 273 273 270 269 268 270 269 269 265 260 258 258 258 264 275 282 286 285 283 276 264 244 214 197 187 180 177 178 174 169 168 168 163 161 158 155 156 154 152 154 154 155 156 152 155 156 152 159 166 175 172 169 153 136 136 141 145 147 152 161 150 142 136 148 153 148 162 161 162 167 161 160 159 159 158 159 159 159
284 282 281 281 279 278 278 274 271 269 265 263 264 267 264 260 258 255 252 254 258 266 276 285 288 283 278 272 245 216 201 186 181 179 177 174 172 168 167 165 161 158 158 158 158 159 158 160 162 163 164 170 167 169 171 172 145 124 138 151 144 139 118 88 66 300 237 152 143 146 162 168 147 145 152 161 173 161 160 159 166 164 162 161 161
283 283 281 280 278 276 274 271 267 266 266 262 263 265 265 260 258 255 252 252 252 257 267 276 282 286 282 275 256 214 199 190 181 180 177 175 172 170 167 167 165 162 160 161 163 161 163 166 164 166 170 168 172 168 164 155 160 163 163 156 142 142 151 156 169 104 278 174 153 148 166 189 156 159 175 171 167 168 170 171 167 163 164 164 164
284 284 282 279 279 280 279 276 269 263 263 264 266 267 265 260 256 255 253 251 247 248 257 263 272 280 281 282 262 215 195 190 185 182 179 176 171 168 168 168 169 167 165 165 162 164 165 162 167 176 170 171 167 167 165 159 163 162 162 158 159 159 160 168 167 178 187 176 161 168 168 169 169 159 167 185 179 177 174 168 168 167 166 166 167
285 283 281 280 277 278 275 275 273 266 262 263 266 266 266 264 259 254 250 244 241 246 249 256 264 271 278 278 273 214 196 189 182 184 182 177 172 168 167 167 169 169 169 166 164 168 167 163 169 172 176 166 164 176 174 168 157 157 160 167 167 165 168 171 179 168 170 178 148 154 166 184 169 175 179 180 169 165 161 168 172 170 168 168 168
279 277 278 277 275 273 272 271 269 268 263 266 267 267 265 264 262 257 248 243 241 242 248 252 259 267 269 275 270 224 195 186 183 181 177 174 171 168 165 166 169 171 169 168 167 160 162 167 166 173 177 166 172 168 170 158 157 164 167 175 169 164 172 185 179 174 165 166 170 155 157 181 183 167 185 172 157 158 177 177 171 171 171 170 170
277 278 277 276 272 273 273 273 271 265 262 264 266 265 265 262 259 257 249 245 243 244 248 251 257 261 266 268 266 238 196 182 187 179 174 171 169 167 167 170 169 169 170 171 168 168 171 169 172 167 164 174 164 160 166 176 172 171 172 170 172 173 152 74 54 74 158 184 161 155 178 171 158 177 185 162 170 174 177 188 178 175 175 173 174
271 271 270 266 269 269 269 270 272 274 271 268 267 267 266 264 258 252 247 241 242 244 248 252 253 257 261 259 264 246 199 185 184 178 174 167 167 168 170 170 169 171 176 178 173 172 169 168 168 164 168 169 170 170 172 174 172 150 122 98 101 117 139 153 153 150 167 194 195 171 145 171 176 178 177 145 146 177 188 198 191 180 177 177 175
266 264 264 265 268 268 268 268 268 268 265 264 265 266 266 263 255 246 243 239 240 242 246 248 251 255 255 253 253 252 205 187 179 175 170 163 167 169 169 169 170 172 176 173 173 170 168 167 168 169 169 169 173 174 172 165 157 148 138 143 162 155 146 146 144 151 178 180 211 205 147 159 174 172 131 157 177 181 185 198 203 193 184 176 169
266 262 263 266 263 263 266 267 266 264 262 263 264 265 266 263 251 243 237 239 238 241 246 245 248 249 251 249 245 247 217 190 175 173 169 166 169 170 169 168 170 174 174 168 168 177 170 165 164 164 164 165 166 167 165 163 157 153 156 170 167 161 172 169 167 176 162 185 195 157 125 161 147 135 111 89 114 248 198 206 198 198 193 188 185
257 262 260 257 261 260 259 260 262 265 266 264 263 265 266 265 260 238 235 228 237 237 237 245 243 245 251 249 241 238 222 188 176 173 170 170 172 172 171 169 173 178 177 168 167 162 162 152 161 161 165 165 163 165 170 168 167 170 172 163 159 171 174 172 158 139 156 210 193 166 154 144 156 173 144 122 190 244 210 194 196 196 196 193 193